User: anonymous   Login
Location: Stigler
(35.2540°N, 95.1230°W)
Time: 19:15:53
(UTC-05:00)
Language:

Cosmos 1805 - Orbit

View from above orbital plane
View from above orbital plane
View from above satellite
View from above satellite

Ground track
Ground track

The orbit data is extracted from the following two-line orbital elements,

1 17191U 86097A   16146.82286103 +.00001071 +00000-0 +62098-4 0  9995
2 17191 082.4749 050.8090 0004347 353.1404 006.9765 15.11164614604840
Epoch (UTC): 25 May 2016 19:44:55
Eccentricity: 0.0004347
inclination: 82.4749°
perigee height: 529 km
apogee height: 535 km
right ascension of ascending node: 50.8090°
argument of perigee: 353.1404°
revolutions per day: 15.11164614
mean anomaly at epoch: 6.9765°
orbit number at epoch: 60484

The dashed part of the orbit path shows where the satellite is in the earth's shadow,  

DLR